Weather History for Montichiari, Italy

Change the Weather History Date:

Wednesday, December 12, 2012

  Actual Average (LIPL) Record (LIPL)
Temperature  
Mean Temperature 30 °F -  
Max Temperature 37 °F 44 °F 52 °F (2014)
Min Temperature 24 °F 30 °F 19 °F (2012)
Degree Days  
Heating Degree Days 34    
Moisture  
Dew Point 18 °F    
Average Humidity 60    
Maximum Humidity 80    
Minimum Humidity 35    
Precipitation  
Precipitation 0.00 in - - ()
Sea Level Pressure  
Sea Level Pressure 30.14 in    
Wind  
Wind Speed 4 mph ()    
Max Wind Speed 8 mph    
Max Gust Speed -    
Visibility 6.2 miles    
Events      
Averages and records for this station are not official NWS values.
T = Trace of Precipitation, MM = Missing Value Source: Averaged Metar Reports

Daily Weather History Graph

Daily Weather History Graph

Search for Another Location

Airport:

Trip Planner

Search our weather history database for the weather conditions in past years. The results will help you decide how hot, cold, wet, or windy it might be!

Date:

Astronomy

Dec. 12, 2012 Rise Set
Actual Time 7:49 AM CET 4:35 PM CET
Civil Twilight 7:15 AM CET 5:09 PM CET
Nautical Twilight 6:37 AM CET 5:47 PM CET
Astronomical Twilight 6:01 AM CET 6:23 PM CET
Moon 6:33 AM CET (12/12) 3:56 PM CET (12/12)
Length of Visible Light 9h 54m
Length of Day
8h 46m
Waning Crescent, 1% of the Moon is Illuminated
Dec 12
Waning Crescent
Dec 13
New
Dec 20
First Quarter
Dec 28
Full
Jan 5
Last Quarter

Hourly Weather History & Observations

Time (CET) Temp. Windchill Dew Point Humidity Pressure Visibility Wind Dir Wind Speed Gust Speed Precip Events Conditions
12:50 AM 33.8 °F 30.8 °F 8.6 °F 35% 30.09 in 6.2 mi NNE 3.5 mph - N/A   Partly Cloudy
1:50 AM 28.4 °F - 14.0 °F 55% 30.09 in 6.2 mi WNW 2.3 mph - N/A   Partly Cloudy
2:50 AM 28.4 °F 23.3 °F 14.0 °F 55% 30.09 in - North 4.6 mph - N/A   Clear
3:50 AM 28.4 °F 23.3 °F 14.0 °F 55% 30.12 in - WNW 4.6 mph - N/A   Clear
4:50 AM 26.6 °F 21.2 °F 12.2 °F 55% 30.09 in - NNW 4.6 mph - N/A   Clear
5:50 AM 24.8 °F 17.9 °F 14.0 °F 64% 30.09 in - NE 5.8 mph - N/A   Clear
6:50 AM 28.4 °F 20.4 °F 12.2 °F 51% 30.12 in - ENE 8.1 mph - N/A   Clear
7:50 AM 30.2 °F 23.4 °F 12.2 °F 47% 30.12 in - NE 6.9 mph - N/A   Clear
8:50 AM 28.4 °F 22.2 °F 12.2 °F 51% 30.15 in - NE 5.8 mph - N/A   Clear
9:50 AM 32.0 °F - 15.8 °F 51% 30.15 in - NNE 2.3 mph - N/A   Clear
10:50 AM 35.6 °F - 21.2 °F 56% 30.18 in - West 2.3 mph - N/A   Clear
11:50 AM 35.6 °F 31.7 °F 21.2 °F 56% 30.18 in - West 4.6 mph - N/A   Clear
12:50 PM 35.6 °F 31.7 °F 23.0 °F 60% 30.15 in - West 4.6 mph - N/A   Clear
1:50 PM 37.4 °F 33.8 °F 23.0 °F 56% 30.15 in - West 4.6 mph - N/A   Clear
2:50 PM 37.4 °F 32.8 °F 24.8 °F 60% 30.12 in - West 5.8 mph - N/A   Clear
3:50 PM 35.6 °F 31.7 °F 23.0 °F 60% 30.15 in - West 4.6 mph - N/A   Clear
4:50 PM 32.0 °F 28.7 °F 23.0 °F 69% 30.15 in - WNW 3.5 mph - N/A   Clear
5:50 PM 32.0 °F - 21.2 °F 64% 30.15 in - North 1.2 mph - N/A   Clear
6:50 PM 28.4 °F - 21.2 °F 74% 30.18 in - North 2.3 mph - N/A   Clear
7:50 PM 26.6 °F - 19.4 °F 74% 30.18 in - East 1.2 mph - N/A   Clear
8:50 PM 28.4 °F 22.2 °F 21.2 °F 74% 30.18 in - ENE 5.8 mph - N/A   Clear
9:50 PM 26.6 °F 22.6 °F 21.2 °F 80% 30.18 in - ENE 3.5 mph - N/A   Clear
10:50 PM 28.4 °F 20.4 °F 23.0 °F 80% 30.18 in - NE 8.1 mph - N/A   Clear
11:50 PM 28.4 °F 22.2 °F 19.4 °F 69% 30.21 in - East 5.8 mph - N/A   Clear